[[{"header":{"parameterUnit":"m.s-1","parameterCategory":1,"la1":30.2991,"la2":30.254,"lo1":-89.0895,"lo2":-89.0444,"dy":0.0017,"dx":0.0017,"nx":28,"ny":28,"refTime":"2023-09-05T09:00:00:Z","depth":0,"parameterNumber":2,"parameterNumberName":"U-component_of_WINDS"},"data":[0,0,0,0,0,0,0,0,0,0,0,0,0,0,0,0,0,0,0,0,0,0,0,0,0,0,0,0,0,0,0,0,0,0,0,0,0,0,0,0,0,0,0,0,0,0,0,0,0,0,0,0,0,0,0,0,0,0,-3.3413,-3.3412,0,-3.335,-3.3349,-3.3348,-3.3286,-3.3285,-3.3284,-3.3283,-3.3216,-3.3215,-3.3214,0,0,0,0,0,0,0,0,0,0,0,0,0,-3.3479,-3.3478,-3.3413,-3.3412,-3.3411,-3.335,-3.3349,-3.3348,-3.3286,-3.3285,-3.3284,-3.3283,-3.3217,-3.3216,-3.3214,0,0,0,0,0,0,0,0,0,0,0,0,0,-3.3436,-3.3477,-3.3413,-3.3373,-3.3369,-3.335,-3.3349,-3.3348,-3.3286,-3.3285,-3.3284,-3.3282,-3.3217,-3.3216,-3.3214,-3.3229,0,0,-3.3209,-3.3209,0,0,0,0,0,0,0,0,-3.3439,-3.3434,-3.3379,-3.3376,-3.3371,-3.3324,-3.3347,-3.3308,-3.3286,-3.3317,-3.3283,-3.3282,-3.3253,-3.3249,-3.3239,-3.3226,-3.3223,-3.3209,-3.3208,-3.3208,-3.3207,0,0,0,0,0,0,0,-3.3442,-3.3436,-3.3388,-3.3379,-3.3373,-3.3358,-3.335,-3.334,-3.3293,-3.3315,-3.331,-3.3303,-3.3251,-3.3241,-3.3237,-3.3222,-3.3209,-3.3208,-3.3207,-3.3206,-3.3218,-3.322,0,0,0,0,0,0,-3.3451,-3.3439,-3.339,-3.3386,-3.3403,-3.3358,-3.3349,-3.334,-3.3293,-3.3284,-3.3305,-3.3301,-3.3244,-3.3239,-3.3235,-3.3249,-3.3208,-3.3206,-3.3205,-3.3217,-3.3219,-3.322,0,0,0,0,0,0,-3.3453,-3.3447,-3.3392,-3.3411,-3.3403,-3.3358,-3.3348,-3.334,-3.333,-3.3285,-3.3276,-3.3303,-3.3243,-3.3237,-3.3231,-3.3246,-3.3206,-3.3204,-3.3216,-3.3218,-3.3219,-3.3277,0,0,0,0,0,0,-3.3455,-3.3448,-3.3453,-3.3412,-3.3402,-3.339,-3.3349,-3.3339,-3.3328,-3.3322,-3.3282,-3.3274,-3.3242,-3.3234,-3.323,-3.3243,-3.3203,-3.3214,-3.3217,-3.3219,-3.3274,-3.3281,-3.3287,0,0,0,0,0,-3.3457,-3.3472,-3.3454,-3.3448,-3.3408,-3.3391,-3.3385,-3.3349,-3.3329,-3.3334,-3.3306,-3.3275,-3.3245,-3.3234,-3.3229,-3.3241,-3.3213,-3.3216,-3.3219,-3.3271,-3.328,-3.3287,0,0,0,0,0,0,-3.3515,-3.3465,-3.3445,-3.3446,-3.3424,-3.3381,-3.3385,-3.3359,-3.334,-3.3336,-3.3291,-3.3282,-3.3281,-3.3261,-3.3249,-3.3254,-3.3225,-3.3227,-3.3267,-3.3275,-3.3281,-3.3285,-3.3202,0,0,0,0,0,-3.3528,-3.3519,-3.3476,-3.3481,-3.3471,-3.3431,-3.3422,-3.3396,-3.337,-3.3359,-3.333,-3.3306,-3.3291,-3.3282,-3.3266,-3.3272,-3.3262,-3.3278,-3.3285,-3.329,-3.3292,-3.3294,-3.33,-3.3229,-3.3229,-3.3229,0,0,-3.3554,-3.3526,-3.3523,-3.3492,-3.3471,-3.3462,-3.3422,-3.3415,-3.3408,-3.3358,-3.3351,-3.3329,-3.3299,-3.3299,-3.3298,-3.3282,-3.331,-3.3294,-3.3299,-3.3297,-3.3297,-3.3304,-3.331,-3.3231,-3.3231,-3.323,0,0,-3.3597,-3.3575,-3.3577,-3.3558,-3.3528,-3.3501,-3.3502,-3.3463,-3.3447,-3.344,-3.3402,-3.3394,-3.3369,-3.3349,-3.3336,-3.3374,-3.3345,-3.3371,-3.3404,-3.3406,-3.3412,-3.3416,-3.3429,-3.3435,-3.3373,-3.3373,-3.3373,0,-3.3633,-3.3619,-3.3582,-3.3576,-3.3564,-3.3521,-3.3522,-3.3505,-3.3471,-3.3463,-3.3447,-3.3416,-3.3392,-3.3387,-3.3397,-3.3388,-3.3387,-3.3374,-3.3414,-3.3418,-3.3422,-3.3434,-3.3439,-3.3376,-3.3376,-3.3375,-3.3375,0,-3.3664,-3.3655,-3.3661,-3.363,-3.3618,-3.3617,-3.3579,-3.3572,-3.3548,-3.3523,-3.3517,-3.3488,-3.3465,-3.3462,-3.3438,-3.3455,-3.3446,-3.3423,-3.3392,-3.3433,-3.3443,-3.3447,-3.338,-3.3379,-3.3378,-3.3378,0,0,-3.3739,-3.3689,-3.3692,-3.3678,-3.3642,-3.3634,-3.3631,-3.361,-3.3605,-3.3583,-3.3579,-3.3561,-3.3539,-3.3524,-3.3498,-3.35,-3.3532,-3.3477,-3.3475,-3.3487,-3.3548,-3.3565,-3.357,-3.3514,-3.3515,-3.3516,-3.355,0,-3.3775,-3.3767,-3.3734,-3.3735,-3.3727,-3.3687,-3.3684,-3.3662,-3.3639,-3.3628,-3.3603,-3.3591,-3.3564,-3.3555,-3.3556,-3.3528,-3.3544,-3.3526,-3.3509,-3.3509,-3.3516,-3.3576,-3.3593,-3.3627,-3.3554,-3.3555,-3.3555,0,-3.3815,-3.3797,-3.3798,-3.3764,-3.3759,-3.3757,-3.3736,-3.3726,-3.3701,-3.3684,-3.3669,-3.364,-3.3635,-3.3609,-3.36,-3.3589,-3.358,-3.3566,-3.3567,-3.3562,-3.3533,-3.3572,-3.3637,-3.3642,-3.3561,-3.3561,-3.356,0,-3.3868,-3.3845,-3.3842,-3.3831,-3.3792,-3.3791,-3.3775,-3.3748,-3.3738,-3.372,-3.3713,-3.3694,-3.3683,-3.3669,-3.3636,-3.362,-3.3632,-3.3603,-3.3617,-3.3618,-3.3619,-3.3619,-3.3683,-3.3617,-3.3617,-3.3617,-3.3617,0,-3.391,-3.3912,-3.3866,-3.3864,-3.3865,-3.3828,-3.383,-3.381,-3.3787,-3.3781,-3.3746,-3.374,-3.3698,-3.3688,-3.3662,-3.3659,-3.3654,-3.364,-3.3633,-3.3643,-3.3644,-3.3635,-3.3631,-3.3618,-3.3618,-3.3618,-3.3617,0,-3.3968,-3.3938,-3.3932,-3.3896,-3.3887,-3.3889,-3.3858,-3.3855,-3.3832,-3.3824,-3.382,-3.3783,-3.3769,-3.3736,-3.3713,-3.3696,-3.3699,-3.3687,-3.3708,-3.3703,-3.3719,-3.3717,-3.3777,-3.3783,-3.3715,-3.3716,-3.3717,0,-3.3997,-3.3997,-3.3962,-3.3955,-3.3941,-3.3931,-3.3921,-3.3885,-3.3876,-3.3849,-3.3849,-3.3833,-3.3818,-3.3798,-3.3769,-3.3752,-3.3738,-3.376,-3.3735,-3.3744,-3.3737,-3.3736,-3.3736,-3.3765,-3.3766,-3.3767,-3.3767,0,-3.405,-3.4035,-3.4022,-3.4004,-3.3994,-3.3978,-3.396,-3.3957,-3.3917,-3.3909,-3.3895,-3.3884,-3.3862,-3.3846,-3.3825,-3.3807,-3.3781,-3.3776,-3.3778,-3.3787,-3.3798,-3.3791,-3.3721,-3.3774,-3.3773,-3.3773,-3.3772,-3.3772,-3.4092,-3.4091,-3.4067,-3.4054,-3.4037,-3.4022,-3.4018,-3.3994,-3.3983,-3.3962,-3.3942,-3.3931,-3.3906,-3.3875,-3.386,-3.385,-3.3836,-3.384,-3.384,-3.3841,-3.3845,-3.3802,-3.3846,-3.3846,-3.3846,-3.3846,-3.3845,0,-3.4143,-3.4125,-3.4114,-3.4091,-3.4081,-3.4059,-3.4039,-3.4032,-3.4022,-3.4002,-3.3989,-3.3974,-3.3959,-3.393,-3.3912,-3.391,-3.3897,-3.3907,-3.3905,-3.3902,-3.3859,-3.3858,-3.3917,-3.3917,-3.3917,-3.3917,-3.3917,-3.3917,-3.4167,-3.4165,-3.4147,-3.4136,-3.4118,-3.4107,-3.4098,-3.4083,-3.4067,-3.4052,-3.404,-3.4022,-3.3998,-3.3979,-3.3964,-3.3956,-3.3951,-3.3964,-3.3952,-3.3912,-3.3905,-3.3898,-3.3897,-3.3963,-3.3963,-3.3995,-3.3995,-3.3995]},{"header":{"parameterUnit":"m.s-1","parameterCategory":1,"la1":30.2991,"la2":30.254,"lo1":-89.0895,"lo2":-89.0444,"dy":0.0017,"dx":0.0017,"nx":28,"ny":28,"refTime":"2023-09-05T09:00:00:Z","depth":0,"parameterNumber":3,"parameterNumberName":"V-component_of_WINDS"},"data":[0,0,0,0,0,0,0,0,0,0,0,0,0,0,0,0,0,0,0,0,0,0,0,0,0,0,0,0,0,0,0,0,0,0,0,0,0,0,0,0,0,0,0,0,0,0,0,0,0,0,0,0,0,0,0,0,0,0,3.1402,3.1402,0,3.1407,3.1407,3.1407,3.1441,3.1442,3.1443,3.1443,3.1444,3.1443,3.1443,0,0,0,0,0,0,0,0,0,0,0,0,0,3.1419,3.1419,3.1402,3.1402,3.1402,3.1407,3.1407,3.1407,3.1441,3.1442,3.1443,3.1444,3.1444,3.1443,3.1443,0,0,0,0,0,0,0,0,0,0,0,0,0,3.1416,3.1418,3.1402,3.142,3.1421,3.1407,3.1407,3.1407,3.1441,3.1442,3.1443,3.1444,3.1445,3.1444,3.1442,3.141,0,0,3.1439,3.1438,0,0,0,0,0,0,0,0,3.1417,3.1416,3.1417,3.1418,3.142,3.1425,3.1413,3.1408,3.144,3.1433,3.1443,3.1445,3.1436,3.1436,3.1434,3.141,3.141,3.1439,3.1438,3.1438,3.1437,0,0,0,0,0,0,0,3.1417,3.1416,3.1404,3.1417,3.1419,3.1426,3.1427,3.1412,3.1427,3.1434,3.1436,3.1437,3.1437,3.1435,3.1434,3.141,3.1439,3.1438,3.1437,3.1437,3.1361,3.136,0,0,0,0,0,0,3.1415,3.1416,3.1404,3.1404,3.1422,3.1425,3.1426,3.1422,3.1428,3.143,3.1436,3.1438,3.1436,3.1436,3.1434,3.1398,3.1438,3.1437,3.1436,3.1362,3.1361,3.1359,0,0,0,0,0,0,3.1415,3.1414,3.1403,3.1411,3.141,3.1423,3.1418,3.1421,3.1419,3.1429,3.1432,3.143,3.1437,3.1436,3.1416,3.1398,3.1436,3.1435,3.1364,3.1362,3.136,3.1323,0,0,0,0,0,0,3.1415,3.1413,3.1402,3.141,3.1409,3.1386,3.1417,3.142,3.1417,3.1421,3.1425,3.1427,3.1438,3.1418,3.1415,3.1397,3.1434,3.1366,3.1363,3.1361,3.1326,3.132,3.1315,0,0,0,0,0,3.1416,3.139,3.1401,3.1399,3.1395,3.1385,3.1384,3.1399,3.1416,3.1404,3.1411,3.1427,3.1401,3.1416,3.1413,3.1394,3.1367,3.1364,3.1361,3.1328,3.1321,3.1315,0,0,0,0,0,0,3.1377,3.1391,3.1404,3.138,3.1381,3.1391,3.1376,3.1391,3.1386,3.139,3.1407,3.1408,3.1386,3.1388,3.1404,3.1364,3.1387,3.1383,3.1363,3.1356,3.1351,3.135,3.1433,0,0,0,0,0,3.1366,3.1358,3.137,3.1348,3.1348,3.1362,3.1358,3.137,3.1371,3.1371,3.1377,3.1376,3.1368,3.1362,3.1355,3.1327,3.1328,3.1313,3.1307,3.1303,3.1299,3.1285,3.1278,3.135,3.135,3.135,0,0,3.1343,3.1349,3.1343,3.134,3.1343,3.1333,3.1362,3.135,3.1343,3.1369,3.1351,3.1355,3.1356,3.1332,3.1322,3.1334,3.128,3.1299,3.1295,3.1294,3.1281,3.1274,3.1268,3.1348,3.1348,3.1348,0,0,3.1295,3.1299,3.1282,3.1284,3.1288,3.1298,3.1294,3.1301,3.1306,3.1289,3.1309,3.13,3.1285,3.1285,3.1283,3.1238,3.1252,3.1235,3.1206,3.1192,3.1186,3.1181,3.1165,3.1159,3.1231,3.1231,3.1231,0,3.1265,3.1252,3.127,3.1258,3.1256,3.1282,3.1264,3.1264,3.1265,3.1263,3.1277,3.126,3.1263,3.1239,3.1229,3.1226,3.1222,3.1234,3.1186,3.1181,3.1177,3.1161,3.1155,3.1229,3.1229,3.123,3.123,0,3.1215,3.1205,3.1191,3.1193,3.119,3.1174,3.119,3.1184,3.1196,3.1204,3.1187,3.1191,3.1186,3.1181,3.1192,3.116,3.1167,3.1183,3.1206,3.1167,3.1153,3.1147,3.1226,3.1227,3.1228,3.1228,0,0,3.1141,3.1156,3.115,3.1152,3.1159,3.1151,3.1137,3.1134,3.1129,3.1129,3.1117,3.1105,3.112,3.1118,3.113,3.1117,3.1081,3.1135,3.1135,3.1125,3.1046,3.1034,3.1027,3.1092,3.1091,3.109,3.1046,0,3.1096,3.1074,3.109,3.1065,3.1057,3.1081,3.1069,3.1072,3.1079,3.1073,3.1081,3.1072,3.1093,3.1092,3.1081,3.1088,3.1066,3.1091,3.108,3.1079,3.1079,3.102,3.1006,3.0965,3.1041,3.104,3.1039,0,3.1039,3.1039,3.1013,3.1023,3.102,3.1009,3.1008,3.1001,3.1005,3.1011,3.101,3.1025,3.1011,3.1035,3.1016,3.1033,3.103,3.1033,3.1031,3.103,3.1056,3.1017,3.0952,3.0946,3.1031,3.1031,3.1032,0,3.0988,3.0981,3.0965,3.0966,3.0977,3.0969,3.0973,3.0978,3.0975,3.0974,3.0972,3.0968,3.0966,3.0963,3.0977,3.0993,3.0956,3.0981,3.096,3.096,3.0951,3.0951,3.0884,3.0949,3.0949,3.0949,3.0949,0,3.0936,3.0919,3.0943,3.0933,3.0915,3.0934,3.0915,3.0922,3.0926,3.0918,3.0938,3.0929,3.0948,3.0941,3.0952,3.0935,3.0933,3.0938,3.0941,3.0936,3.0935,3.0933,3.0936,3.0948,3.0948,3.0948,3.0948,0,3.0875,3.0891,3.0875,3.0888,3.0891,3.0877,3.0887,3.0878,3.0888,3.0876,3.0875,3.0889,3.0882,3.0896,3.089,3.0897,3.0873,3.0881,3.0872,3.0874,3.0853,3.0855,3.0783,3.0774,3.0844,3.0844,3.0843,0,3.084,3.0828,3.084,3.0837,3.084,3.0834,3.0832,3.0851,3.0848,3.0852,3.0842,3.0837,3.0834,3.0821,3.0831,3.0826,3.0834,3.0809,3.0833,3.0829,3.0833,3.0834,3.0833,3.0803,3.0803,3.0802,3.0801,0,3.0777,3.0786,3.0783,3.0782,3.078,3.078,3.0782,3.0777,3.0797,3.0793,3.0787,3.0784,3.078,3.0774,3.0773,3.0776,3.0791,3.0794,3.0789,3.0783,3.0779,3.0781,3.0858,3.0795,3.0796,3.0796,3.0797,3.0797,3.0728,3.0719,3.0727,3.0723,3.0726,3.0728,3.072,3.073,3.0726,3.0724,3.0735,3.0727,3.0731,3.0731,3.0733,3.0726,3.0737,3.073,3.0728,3.0726,3.0723,3.0781,3.0726,3.0726,3.0726,3.0726,3.0727,0,3.0666,3.0673,3.0669,3.0672,3.0668,3.0686,3.0689,3.0685,3.0677,3.0681,3.0678,3.0671,3.0667,3.0676,3.0673,3.0666,3.0673,3.0664,3.0665,3.0665,3.0713,3.0718,3.0659,3.0659,3.0659,3.0659,3.0659,3.0659,3.0633,3.0619,3.0629,3.0616,3.0623,3.0616,3.0616,3.0617,3.0621,3.0613,3.0609,3.0617,3.0623,3.062,3.0617,3.062,3.0617,3.0606,3.0611,3.0655,3.0662,3.0668,3.0673,3.0605,3.0605,3.0565,3.0564,3.0564]}]]